Flight Track Log - Related Links

Times and Time Zones

All times are in EDT time to prevent confusion due to time zone crossing. See the FIV606 flight status page for this flight to view local times or setup timezone preferences in your user account.

Time Position Orientation Groundspeed Altitude Reporting Facility
EDT Latitude Longitude Course Direction KTS MPH feet Rate Location/Type
Mon 03:02:52 PM 27.9833 -82.5333 360° North 110 127 700  Level Tampa TRACON
Mon 03:03:10 PM 27.9833 -82.5333 30° Northeast 140 161 1,800 4,077 Climbing Tampa TRACON
Mon 03:04:10 PM 28.0333 -82.5000 30° Northeast 226 260 6,000 4,350 Climbing Tampa TRACON
Mon 03:05:10 PM 28.0167 -82.4167 103° East 277 319 10,500 2,381 Climbing Tampa TRACON
Mon 03:06:16 PM 28.0167 -82.3000 90° East 380 437 11,000 139 Climbing Tampa TRACON
Mon 03:08:46 PM 28.0000 -81.9833 93° East 385 443 11,000  Level Orlando TRACON
Mon 03:09:45 PM 28.0333 -81.8833 69° East 373 429 11,000 -500 Level Orlando TRACON
Mon 03:10:46 PM 28.0667 -81.7833 69° East 332 382 10,000 -1,240 Descending Orlando TRACON
Mon 03:11:46 PM 28.1000 -81.6833 69° East 304 350 8,500 -1,450 Descending Orlando TRACON
Mon 03:12:46 PM 28.1167 -81.6000 77° East 302 348 7,100 -1,211 Descending Orlando TRACON
Mon 03:13:40 PM 28.1500 -81.5167 66° East 246 283 6,200 -950 Descending Orlando TRACON
Mon 03:14:46 PM 28.1667 -81.4500 74° East 239 275 5,200 -1,000 Descending Orlando TRACON
Mon 03:15:46 PM 28.2000 -81.3833 60° Northeast 201 231 4,100 -1,050 Descending Orlando TRACON
Mon 03:16:46 PM 28.2333 -81.3333 53° Northeast 195 224 3,100 -843 Descending Orlando TRACON
Mon 03:17:47 PM 28.2667 -81.3167 24° Northeast 171 197 2,400 -574 Descending Orlando TRACON
Mon 03:18:41 PM 28.3167 -81.3333 344° North 165 190 2,000 -579 Descending Orlando TRACON
Mon 03:19:41 PM 28.3667 -81.3333 360° North 159 183 1,300 -700 Descending Orlando TRACON
Mon 03:20:41 PM 28.4000 -81.3333 360° North 100 115 600 -700 Descending Orlando TRACON
Mon 03:22:00 PM 28.4167 -81.3000 26° Northeast  Level FlightAware Approximate
Mon 03:29:00 PM 28.4294 -81.3090 26° Northeast  Level Estimated
Mon 03:30:00 PM 28.4294 -81.3090 26° Northeast  Level Estimated
Mon 03:31:00 PM 28.4294 -81.3090 26° Northeast  Level Estimated
Mon 03:32:00 PM 28.4294 -81.3090 26° Northeast  Level Estimated

Login

Don't have an account? Register now (free) for customized features, flight alerts, and more!